Flag for Germany Weather past 2 weeks in Neuwied, Rhineland-Palatinate, Germany

Now
63 °F

Mild.


Feels Like: 63 °F
Forecast: 60 / 76 °F
Wind: 2 mph from Northwest

Location: Buechel

Current Time: Jul 29, 2014 at 2:35:23 AM

Latest Report: Jul 29, 2014 at 1:20 AM


Visibility: 3 mi

Pressure: 29.86 "Hg

Humidity: 94%

Dew point: 61 °F

Location of NeuwiedLocation

Historic Weather in Neuwied — Graph

°F

Neuwied temperature yesterday

Maximum temperature yesterday: 75 °F (at 1:20 PM)
Minimum temperature yesterday: 61 °F (at 5:20 AM)
Average temperature yesterday: 65 °F

Past Weeks' High & Low Weather Summary

 TemperatureHumidityPressure
High86 °F (Jul 18, 4:20 PM)100% (Jul 22, 1:20 AM)30.21 "Hg (Jul 22, 1:20 AM)
Low54 °F (Jul 14, 5:20 AM)29% (Jul 18, 5:20 PM)29.86 "Hg (Jul 14, 4:20 AM)
Average68 °F68%30.02 "Hg
* Reported Jul 14 4:20 AM — Jul 29 1:20 AM, Neuwied, Weather by CustomWeather, © 2014

Note: Actual official high and low records may vary slightly from our data, if they occured in-between our weather recording intervals... More about our weather records

Advertising

Neuwied weather history for previous 24 hours

 ConditionsComfort  
Time TempWeatherWind HumidityBarometerVisibility
1:20 AM
Jul 29
63 °FMild.2 mph94%29.86 "Hg2 mi
12:20 AM63 °FMild.7 mph94%29.86 "Hg4 mi
11:20 PM
Jul 28
63 °FMild.7 mph94%29.86 "Hg4 mi
10:20 PM63 °FMild.6 mph94%29.89 "Hg4 mi
9:20 PM63 °FMild.6 mph94%29.86 "Hg5 mi
8:20 PM63 °FMild.6 mph94%29.89 "HgN/A
7:20 PM63 °FMild.7 mph94%29.86 "HgN/A
6:20 PM63 °FMild.7 mph88%29.86 "HgN/A
5:20 PM61 °FCool.8 mph94%29.89 "HgN/A
4:20 PM64 °FThunderstorms. Fog.7 mph83%29.89 "Hg2 mi
3:20 PM63 °FThunderstorms. Fog.12 mph88%29.86 "Hg2 mi
2:50 PM70 °FThunderstorms. Partly sunny.12 mph73%29.86 "Hg3 mi
2:20 PM73 °FPartly sunny.7 mph57%29.86 "HgN/A
1:20 PM75 °FBroken clouds.8 mph54%29.89 "HgN/A
12:20 PM73 °FBroken clouds.9 mph61%29.89 "HgN/A
11:20 AM72 °FBroken clouds.7 mph69%29.89 "HgN/A
10:20 AM68 °FPartly sunny.7 mph78%29.92 "HgN/A
9:20 AM66 °FScattered clouds.8 mph83%29.92 "Hg5 mi
8:20 AM64 °FFog.7 mph83%29.92 "Hg4 mi
7:20 AM63 °FFog.5 mph88%29.92 "Hg4 mi
6:20 AM61 °FFog.6 mph88%29.92 "Hg4 mi
5:20 AM61 °FPassing clouds.7 mph88%29.92 "Hg4 mi
4:20 AM63 °FPassing clouds.5 mph88%29.95 "Hg4 mi
3:20 AM63 °FMild.5 mph88%29.98 "Hg2 mi
2:20 AM63 °FMild.5 mph94%29.98 "Hg4 mi
Weather by CustomWeather, © 2014

See weather overviewHow to use our weather pages